Regional Weather Roundup
Issued by NWS

Home | Current Version | Previous Version | Text Only | Print | Product List | Glossary Off
Versions: 1 2 3 4 5 6 7 8 9 10 11 12 13 14 15 16 17 18 19 20 21 22 23 24 25 26 27 28 29 30 31 32 33 34 35 36 37 38 39 40 41 42 43 44 45 46 47 48 49 50

856
ASUS44 KJAN 222203
RWRMS

MISSISSIPPI HOURLY WEATHER ROUNDUP
NATIONAL WEATHER SERVICE JACKSON MS
500 PM CDT MON SEP 22 2014

NOTE: "FAIR: INDICATES FEW OR NO CLOUDS BELOW 12,000 FEET WITH NO
SIGNIFICANT WEATHER AND/OR OBSTRUCTIONS TO VISIBILITY.

MSZ001>002-007>008-010>013-018>021-025>028-034>036-222300-
NORTHWEST MISSISSIPPI

CITY           SKY/WX    TMP DP  RH WIND       PRES   REMARKS
CLARKSDALE     FAIR      77  52  41 N12G18    30.14F
CLEVELAND      FAIR      80  53  38 N16G22    30.11F
GREENWOOD      SUNNY     79  53  40 N13       30.11R
GREENVILLE     SUNNY     82  51  34 NE15      30.10S
GRENADA        FAIR      77  54  44 N8        30.12S
OLIVE BRANCH   SUNNY     73  52  46 N10G18    30.16F
OXFORD         FAIR      75  54  46 NE10      30.15F
TUNICA         CLEAR     75  50  41 N8        30.16S
$$

MSZ003>006-009-014>017-022>024-029>033-037>039-222300-
NORTHEAST MISSISSIPPI

CITY           SKY/WX    TMP DP  RH WIND       PRES   REMARKS
COLUMBUS AFB   SUNNY     80  50  35 N12       30.09R
CORINTH        FAIR      77  50  38 N10       30.13F
GOLDN TRIANGLE SUNNY     79  52  38 N10       30.09S
STARKVILLE     FAIR      79  48  34 N8        30.10R
TUPELO         SUNNY     77  49  37 NE15      30.12F
$$

MSZ040-058-222300-
CENTRAL MISSISSIPPI

CITY           SKY/WX    TMP DP  RH WIND       PRES   REMARKS
JACKSON INTL   SUNNY     82  50  32 N14G22    30.06F
JACKSON HAWKNS SUNNY     83  51  33 N9        30.07S
MERIDIAN KEY   SUNNY     81  50  33 N15       30.04S
MERIDIAN NAS   SUNNY     83  48  29 NE10      30.05F
RAYMOND        FAIR      82  77  83 NE5       30.07S HX  91
VICKSBURG      SUNNY     84  50  30 NE10      30.07F
$$

MSZ059>079-222300-
SOUTH MISSISSIPPI

CITY           SKY/WX    TMP DP  RH WIND       PRES   REMARKS
BROOKHAVEN     FAIR      82  48  30 N9G18     30.06S
COLUMBIA       FAIR      84  54  34 N12       30.01S
HATTIESBURG    SUNNY     85  51  31 N12       30.01S
MCCOMB         SUNNY     85  52  32 N10       30.03S
NATCHEZ        SUNNY     81  54  39 N12       30.06S
PINE BELT      SUNNY    N/A N/A N/A N15       30.04S
$$

MSZ080>082-222300-
COASTAL MISSISSIPPI

CITY           SKY/WX    TMP DP  RH WIND       PRES   REMARKS
BAY ST LOUIS   MOSUNNY   88  64  45 N15       29.98R
BILOXI         SUNNY     85  67  55 NE13G20   29.97S
PASCAGOULA     MOSUNNY   86  69  56 N12       29.96F HX  90
GULFPORT       MOSUNNY   85  66  53 NE13      29.96S
$$



USA.gov is the U.S. government's official web portal to all federal, state and local government web resources and services.